Regional Weather Roundup
Issued by NWS

Home | Current Version | Previous Version | Text Only | Print | Product List | Glossary On
Versions: 1 2 3 4 5 6 7 8 9 10 11 12 13 14 15 16 17 18 19 20 21 22 23 24 25 26 27 28 29 30 31 32 33 34 35 36 37 38 39 40 41 42 43 44 45 46 47 48 49 50
000
ASUS43 KFSD 230610
RWRSD

WEATHER ROUNDUP FOR SOUTH DAKOTA
NATIONAL WEATHER SERVICE SIOUX FALLS SD
1200 AM CST TUE JAN 23 2018

NOTE: "FAIR" INDICATES FEW OR NO CLOUDS BELOW 12,000 FEET WITH NO
SIGNIFICANT WEATHER AND/OR OBSTRUCTIONS TO VISIBILITY.


SDZ001>005-009-010-012>017-230700-
NORTHWEST AND NORTH CENTRAL SOUTH DAKOTA

CITY           SKY/WX    TMP DP  RH WIND       PRES   REMARKS
BUFFALO          N/A     30  21  69 W10       29.97S WCI  21
FAITH            N/A     26  20  77 NW10      30.02R WCI  16
MOBRIDGE       FOG       23  20  88 W5        30.02S VSB 1/2 WCI  17
$$

SDZ012>016-024>037-041>051-057-063-072>074-230700-
SOUTHWEST AND SOUTH CENTRAL SOUTH DAKOTA

CITY           SKY/WX    TMP DP  RH WIND       PRES   REMARKS
RAPID CTY ARPT MOCLDY    30  20  66 NW10      30.04R WCI  21
PIERRE         FOG       21  21 100 NW7       30.05S VSB 3/4 WCI  12
CUSTER         CLOUDY    25  15  66 NW7       29.99S WCI  17
ELLSWORTH AFB  CLOUDY    33  22  65 NW13      30.03S WCI  23
PHILIP         CLEAR     19  17  92 SW5       30.05S WCI  12
PINE RIDGE     PTCLDY    13  10  88 SW3       30.07R
SPEARFISH      FLURRIES  32  23  69 NW10G16   30.07R WCI  24
WINNER         CLOUDY    23  21  92 NW9       30.05R FOG     WCI  13
$$

SDZ004>011-016>023-039-040-230700-
NORTHEAST SOUTH DAKOTA

CITY           SKY/WX    TMP DP  RH WIND       PRES   REMARKS
ABERDEEN       CLOUDY    22  21  96 N10       30.06R WCI  11
WATERTOWN      CLOUDY    20  20 100 N16       29.96R WCI   6
BROOKINGS      CLOUDY    21  20  96 N12       29.96R WCI   9
SISSETON         N/A     23  20  88 N17       30.00S WCI   9
$$

SDZ017-020-022-023-036>040-048>070-230700-
SOUTHEAST SOUTH DAKOTA

CITY           SKY/WX    TMP DP  RH WIND       PRES   REMARKS
SIOUX FALLS    CLOUDY    24  22  91 N18G28    29.95R WCI  10
HURON          CLOUDY    21  20  96 NW15      30.04R WCI   8
CHAMBERLAIN    CLOUDY    24  24 100 NW9       30.05R WCI  14
MITCHELL       CLOUDY    23  21  92 NW16      30.05R WCI  10
YANKTON        FLURRIES  24  21  88 NW23      29.99S WCI   9
$$

ABBREVIATIONS USED IN REMARKS
   TC - TEMPERATURE IN CELSIUS
  WCI - WIND CHILL INDEX
   HX - HEAT INDEX
  VSB - VISIBILITY




USA.gov is the U.S. government's official web portal to all federal, state and local government web resources and services.